Location: S�tio Afonso Gruber
(26.1760°S, 49.5250°W)
Time: 08:49:11
(UTC+00:00)

FALCONSAT 3 - Visible Passes

Search period start: 09 May 2021 00:00
Search period end: 19 May 2021 00:00
Orbit: 442 x 447 km, 35.4° (Epoch: 08 May)

Date Brightness Start Highest point End Pass type
(mag) Time Alt. Az. Time Alt. Az. Time Alt. Az.
09 May ? 08:13:53 56° S 08:14:02 57° SSE 08:17:34 10° ENE visible
10 May ? 07:35:30 20° E 07:35:30 20° E 07:36:45 10° E visible
10 May ? 09:08:57 11° W 09:11:48 28° NNW 09:14:53 10° NNE visible
11 May ? 08:30:36 33° NW 08:31:06 34° NNW 08:34:22 10° NE visible
12 May ? 07:52:17 22° NNE 07:52:17 22° NNE 07:53:48 10° NE visible
15 May ? 22:27:59 10° NW 22:29:51 26° NNW 22:29:51 26° NNW visible
16 May ? 21:47:24 10° NNW 21:50:38 32° NNE 21:51:27 29° ENE visible
17 May ? 21:06:52 10° NNW 21:09:54 26° NNE 21:12:57 10° E visible
17 May ? 22:44:53 10° W 22:46:26 23° W 22:46:26 23° W visible
18 May ? 22:04:02 10° WNW 22:07:36 61° SSW 22:07:56 57° S visible
